[[{"header":{"parameterUnit":"m.s-1","parameterCategory":1,"la1":30.2991,"la2":30.254,"lo1":-89.0895,"lo2":-89.0444,"dy":0.0017,"dx":0.0017,"nx":28,"ny":28,"refTime":"2025-04-30T21:00:00:Z","depth":0,"parameterNumber":2,"parameterNumberName":"U-component_of_WINDS"},"data":[0,0,0,0,0,0,0,0,0,0,0,0,0,0,0,0,0,0,0,0,0,0,0,0,0,0,0,0,0,0,0,0,0,0,0,0,0,0,0,0,0,0,0,0,0,0,0,0,0,0,0,0,0,0,0,0,0,0,-1.0101,-1.0102,0,-1.0191,-1.0192,-1.0193,-1.0225,-1.0225,-1.0224,-1.0224,-1.032,-1.0323,-1.0325,0,0,0,0,0,0,0,0,0,0,0,0,0,-0.9962,-0.9964,-1.0101,-1.0102,-1.0104,-1.0191,-1.0192,-1.0194,-1.0225,-1.0225,-1.0224,-1.0224,-1.0319,-1.0322,-1.0326,0,0,0,0,0,0,0,0,0,0,0,0,0,-1.0034,-0.9965,-1.0101,-1.013,-1.0133,-1.0191,-1.0192,-1.0194,-1.0225,-1.0225,-1.0224,-1.0224,-1.0318,-1.0322,-1.0326,-1.0363,0,0,-1.0339,-1.0341,0,0,0,0,0,0,0,0,-1.003,-1.0039,-1.0124,-1.0128,-1.0132,-1.0196,-1.0178,-1.0251,-1.0225,-1.019,-1.0224,-1.0223,-1.0279,-1.0287,-1.0305,-1.0368,-1.0372,-1.034,-1.0342,-1.0344,-1.0345,0,0,0,0,0,0,0,-1.0025,-1.0036,-1.0137,-1.0126,-1.013,-1.014,-1.0149,-1.0192,-1.0237,-1.0193,-1.0196,-1.0206,-1.0281,-1.0301,-1.0307,-1.0373,-1.034,-1.0343,-1.0346,-1.0348,-1.0473,-1.0474,0,0,0,0,0,0,-1.0015,-1.0031,-1.0134,-1.014,-1.0079,-1.0143,-1.0154,-1.0176,-1.0236,-1.0245,-1.0206,-1.0207,-1.0294,-1.0302,-1.0311,-1.036,-1.0344,-1.0348,-1.0351,-1.0473,-1.0473,-1.0474,0,0,0,0,0,0,-1.0012,-1.0024,-1.0131,-1.0086,-1.0101,-1.0146,-1.0171,-1.0178,-1.0198,-1.0246,-1.0255,-1.0217,-1.0294,-1.0305,-1.035,-1.0363,-1.035,-1.0354,-1.0472,-1.0473,-1.0474,-1.0456,0,0,0,0,0,0,-1.0007,-1.0022,-1.0035,-1.0086,-1.0103,-1.0167,-1.0172,-1.018,-1.0204,-1.0206,-1.0259,-1.0267,-1.0294,-1.0344,-1.0354,-1.0369,-1.0357,-1.0471,-1.0472,-1.0474,-1.0456,-1.0457,-1.0457,0,0,0,0,0,-1.0002,-1.0027,-1.0036,-1.0048,-1.012,-1.0167,-1.0177,-1.0206,-1.0205,-1.022,-1.0252,-1.0265,-1.036,-1.0348,-1.036,-1.0377,-1.047,-1.0472,-1.0473,-1.0456,-1.0457,-1.0457,0,0,0,0,0,0,-0.9977,-1.0034,-1.0045,-1.0086,-1.0122,-1.0172,-1.0192,-1.0206,-1.0243,-1.0244,-1.028,-1.0291,-1.0334,-1.036,-1.0346,-1.0417,-1.0416,-1.042,-1.0398,-1.04,-1.04,-1.0394,-1.0361,0,0,0,0,0,-0.9977,-1.0009,-1.0057,-1.009,-1.0107,-1.0146,-1.0168,-1.0187,-1.0226,-1.0242,-1.0276,-1.0314,-1.0353,-1.0378,-1.0416,-1.046,-1.0473,-1.0477,-1.0478,-1.0478,-1.0482,-1.051,-1.0513,-1.048,-1.048,-1.048,0,0,-0.9976,-1.0011,-1.0029,-1.0086,-1.0115,-1.015,-1.0158,-1.0194,-1.0221,-1.0247,-1.0292,-1.0319,-1.0365,-1.041,-1.0432,-1.0433,-1.0494,-1.0481,-1.048,-1.0484,-1.0512,-1.0515,-1.0517,-1.0481,-1.0481,-1.0481,0,0,-0.9991,-1.002,-1.0051,-1.0081,-1.0126,-1.0152,-1.0159,-1.0209,-1.0227,-1.0273,-1.0294,-1.0327,-1.0392,-1.0424,-1.0449,-1.0479,-1.0494,-1.049,-1.0494,-1.0521,-1.0523,-1.0526,-1.0538,-1.0542,-1.0494,-1.0494,-1.0494,0,-0.9985,-1.0036,-1.0065,-1.01,-1.0126,-1.0151,-1.0184,-1.0211,-1.0267,-1.0285,-1.0285,-1.0368,-1.04,-1.0454,-1.0462,-1.0481,-1.0492,-1.0485,-1.052,-1.0523,-1.0526,-1.0538,-1.0543,-1.0493,-1.0493,-1.0493,-1.0493,0,-1.0026,-1.0062,-1.0082,-1.0134,-1.0161,-1.0195,-1.0231,-1.0256,-1.0274,-1.0301,-1.0348,-1.0388,-1.0435,-1.045,-1.0467,-1.0507,-1.0507,-1.0513,-1.0513,-1.0528,-1.054,-1.0545,-1.0492,-1.0492,-1.0493,-1.0493,0,0,-1.0028,-1.0097,-1.0104,-1.0129,-1.0181,-1.021,-1.0246,-1.0291,-1.0312,-1.035,-1.0383,-1.0438,-1.0445,-1.0473,-1.0495,-1.0518,-1.0542,-1.0522,-1.0524,-1.0526,-1.059,-1.0586,-1.059,-1.0552,-1.0553,-1.0553,-1.0587,0,-1.0052,-1.0115,-1.0144,-1.0195,-1.023,-1.0255,-1.0287,-1.0323,-1.035,-1.0384,-1.0415,-1.0454,-1.0459,-1.0476,-1.05,-1.0533,-1.0555,-1.0531,-1.0584,-1.0586,-1.0573,-1.0597,-1.0591,-1.0621,-1.0592,-1.0593,-1.0593,0,-1.0087,-1.0125,-1.0179,-1.0229,-1.0244,-1.0272,-1.0317,-1.0349,-1.0392,-1.041,-1.0442,-1.0463,-1.0504,-1.0501,-1.056,-1.0543,-1.0567,-1.0586,-1.0588,-1.0595,-1.0591,-1.0605,-1.0631,-1.0636,-1.0601,-1.06,-1.06,0,-1.0085,-1.0149,-1.019,-1.0211,-1.0269,-1.0288,-1.0314,-1.0356,-1.0382,-1.0423,-1.044,-1.0485,-1.051,-1.0545,-1.0579,-1.0573,-1.0634,-1.0634,-1.0652,-1.0651,-1.0664,-1.0663,-1.0695,-1.0678,-1.0678,-1.0678,-1.0677,0,-1.0109,-1.0141,-1.019,-1.0216,-1.0254,-1.0288,-1.0325,-1.0353,-1.0391,-1.0424,-1.0449,-1.048,-1.0522,-1.0559,-1.0586,-1.0631,-1.0642,-1.0659,-1.0666,-1.0657,-1.0655,-1.0674,-1.0673,-1.0679,-1.0678,-1.0678,-1.0678,0,-1.0112,-1.0146,-1.0193,-1.0245,-1.0259,-1.0285,-1.033,-1.0357,-1.0386,-1.0427,-1.0439,-1.0484,-1.0529,-1.0566,-1.0625,-1.0643,-1.0691,-1.0698,-1.0676,-1.068,-1.0697,-1.0695,-1.0743,-1.0752,-1.0727,-1.0727,-1.0727,0,-1.0126,-1.0151,-1.0206,-1.0229,-1.0254,-1.0292,-1.0319,-1.0354,-1.0381,-1.0433,-1.0454,-1.0501,-1.054,-1.0611,-1.065,-1.0696,-1.0705,-1.0719,-1.0712,-1.0704,-1.0708,-1.0706,-1.071,-1.072,-1.072,-1.072,-1.072,0,-1.0146,-1.0162,-1.0199,-1.0242,-1.0273,-1.031,-1.0347,-1.0365,-1.0407,-1.0437,-1.0483,-1.0513,-1.0574,-1.062,-1.0671,-1.0699,-1.0718,-1.0722,-1.0729,-1.072,-1.0707,-1.0716,-1.0679,-1.072,-1.072,-1.072,-1.072,-1.072,-1.0156,-1.0181,-1.0223,-1.0265,-1.0296,-1.033,-1.0359,-1.0391,-1.0429,-1.048,-1.0499,-1.0546,-1.0591,-1.0661,-1.069,-1.0729,-1.0731,-1.0741,-1.0743,-1.0746,-1.0745,-1.07,-1.0738,-1.0738,-1.0738,-1.0738,-1.0738,0,-1.0179,-1.0208,-1.0245,-1.0296,-1.0329,-1.0342,-1.0384,-1.0412,-1.0452,-1.0492,-1.053,-1.0584,-1.063,-1.0673,-1.0722,-1.0745,-1.0755,-1.0757,-1.0756,-1.0763,-1.074,-1.0729,-1.0748,-1.0748,-1.0748,-1.0748,-1.0748,-1.0748,-1.0195,-1.0238,-1.0259,-1.0319,-1.0349,-1.0394,-1.0418,-1.0451,-1.0482,-1.0541,-1.0579,-1.0606,-1.0648,-1.07,-1.0744,-1.0756,-1.0773,-1.0773,-1.0787,-1.0765,-1.0764,-1.0763,-1.0753,-1.0776,-1.0776,-1.0807,-1.0808,-1.0808]},{"header":{"parameterUnit":"m.s-1","parameterCategory":1,"la1":30.2991,"la2":30.254,"lo1":-89.0895,"lo2":-89.0444,"dy":0.0017,"dx":0.0017,"nx":28,"ny":28,"refTime":"2025-04-30T21:00:00:Z","depth":0,"parameterNumber":3,"parameterNumberName":"V-component_of_WINDS"},"data":[0,0,0,0,0,0,0,0,0,0,0,0,0,0,0,0,0,0,0,0,0,0,0,0,0,0,0,0,0,0,0,0,0,0,0,0,0,0,0,0,0,0,0,0,0,0,0,0,0,0,0,0,0,0,0,0,0,0,3.4382,3.4383,0,3.4517,3.4519,3.4521,3.4536,3.4535,3.4534,3.4533,3.4666,3.4671,3.4675,0,0,0,0,0,0,0,0,0,0,0,0,0,3.4131,3.4136,3.4382,3.4383,3.4385,3.4517,3.4519,3.4521,3.4537,3.4535,3.4533,3.4532,3.4664,3.467,3.4676,0,0,0,0,0,0,0,0,0,0,0,0,0,3.4251,3.4137,3.4381,3.4409,3.4413,3.4517,3.4519,3.4521,3.4537,3.4535,3.4533,3.4531,3.4663,3.467,3.4677,3.4761,0,0,3.4699,3.4702,0,0,0,0,0,0,0,0,3.4244,3.426,3.4403,3.4407,3.4412,3.4508,3.448,3.4601,3.4538,3.449,3.4533,3.453,3.4615,3.4626,3.4655,3.4767,3.4773,3.4699,3.4704,3.4707,3.4709,0,0,0,0,0,0,0,3.4236,3.4254,3.4435,3.4405,3.4411,3.4413,3.4428,3.4503,3.4561,3.4494,3.4495,3.4511,3.4617,3.4648,3.4659,3.4775,3.4699,3.4705,3.471,3.4713,3.4961,3.4963,0,0,0,0,0,0,3.4223,3.4247,3.4431,3.4439,3.4322,3.4419,3.4436,3.4479,3.4561,3.4571,3.4513,3.4512,3.4637,3.465,3.4663,3.4767,3.4707,3.4713,3.4717,3.4959,3.4962,3.4964,0,0,0,0,0,0,3.4218,3.4239,3.4426,3.4344,3.4368,3.4426,3.4474,3.4483,3.4515,3.4575,3.4585,3.4535,3.4636,3.4653,3.4737,3.4771,3.4717,3.4723,3.4956,3.496,3.4963,3.4974,0,0,0,0,0,0,3.421,3.4237,3.4271,3.4345,3.4372,3.4498,3.4477,3.4487,3.4528,3.4527,3.4599,3.4609,3.4636,3.4726,3.4744,3.478,3.4729,3.4953,3.4958,3.4962,3.4971,3.4977,3.4983,0,0,0,0,0,3.4201,3.4268,3.4273,3.4295,3.4416,3.45,3.4516,3.4547,3.453,3.4564,3.4603,3.4606,3.4765,3.4734,3.4755,3.4794,3.4951,3.4956,3.4961,3.4968,3.4976,3.4983,0,0,0,0,0,0,3.4195,3.4278,3.4284,3.4377,3.4431,3.4503,3.4546,3.4555,3.4614,3.4611,3.4646,3.4662,3.4744,3.4777,3.4741,3.4879,3.4856,3.4866,3.4854,3.4862,3.4868,3.4858,3.4735,0,0,0,0,0,3.4204,3.4268,3.4336,3.4411,3.4438,3.4487,3.4525,3.4545,3.4602,3.4625,3.467,3.4724,3.4786,3.4826,3.4887,3.4976,3.4991,3.5013,3.5019,3.5024,3.5031,3.508,3.509,3.4981,3.4981,3.4981,0,0,3.4224,3.4277,3.4315,3.4411,3.4456,3.4519,3.4507,3.4574,3.4621,3.4635,3.4717,3.4752,3.4814,3.4901,3.4941,3.4931,3.5065,3.503,3.5034,3.5038,3.5086,3.5096,3.5105,3.4985,3.4984,3.4983,0,0,3.4292,3.434,3.4407,3.4452,3.4521,3.4553,3.4569,3.464,3.4664,3.4747,3.4759,3.4814,3.4921,3.4965,3.5001,3.5086,3.5091,3.5105,3.5136,3.5184,3.5192,3.52,3.5229,3.5239,3.5112,3.5112,3.5112,0,3.4307,3.4405,3.444,3.4507,3.4548,3.4566,3.4634,3.4676,3.476,3.4787,3.4775,3.4909,3.4953,3.5049,3.507,3.5099,3.5118,3.5096,3.5188,3.5196,3.5204,3.5232,3.5243,3.5114,3.5113,3.5113,3.5113,0,3.442,3.4487,3.4533,3.4615,3.4662,3.4729,3.4772,3.4815,3.4831,3.4864,3.4948,3.5001,3.5072,3.5097,3.5112,3.5195,3.5187,3.5182,3.5159,3.5215,3.5242,3.5253,3.5115,3.5115,3.5114,3.5114,0,0,3.4486,3.4588,3.4604,3.4642,3.4719,3.4771,3.4838,3.491,3.4945,3.5003,3.5059,3.5149,3.5144,3.5185,3.5206,3.5248,3.531,3.5237,3.5239,3.5248,3.5404,3.5407,3.5419,3.5315,3.5317,3.5319,3.5398,0,3.4562,3.4684,3.4718,3.482,3.4882,3.49,3.4959,3.5011,3.5044,3.51,3.5136,3.5199,3.5189,3.5214,3.5256,3.5294,3.5342,3.5289,3.5365,3.5368,3.5348,3.5433,3.5436,3.5509,3.5409,3.5411,3.5413,0,3.4667,3.4728,3.4837,3.4907,3.4934,3.4986,3.5054,3.5108,3.5168,3.5189,3.5235,3.5252,3.5321,3.5296,3.5391,3.5354,3.5387,3.5411,3.5415,3.5422,3.5392,3.5441,3.5533,3.5543,3.543,3.5428,3.5427,0,3.4703,3.4813,3.4892,3.4924,3.5007,3.5043,3.5079,3.5138,3.5178,3.5237,3.5264,3.533,3.5365,3.5415,3.5449,3.5428,3.554,3.5518,3.5558,3.5557,3.5579,3.5577,3.5676,3.5603,3.5603,3.5603,3.5602,0,3.4783,3.4849,3.4909,3.4958,3.5032,3.507,3.5141,3.5177,3.5229,3.5284,3.5304,3.5354,3.5396,3.5452,3.5479,3.5553,3.5569,3.5586,3.5592,3.5584,3.5581,3.5605,3.56,3.5606,3.5605,3.5604,3.5604,0,3.4835,3.4879,3.4966,3.5039,3.5058,3.5109,3.517,3.5217,3.5252,3.5321,3.5339,3.5392,3.5458,3.5498,3.5581,3.5599,3.5681,3.5685,3.5661,3.5663,3.57,3.5696,3.5817,3.5834,3.5751,3.5751,3.5752,0,3.4883,3.4934,3.5012,3.5052,3.5089,3.5151,3.5194,3.5232,3.5275,3.5348,3.5386,3.5454,3.5511,3.5617,3.5661,3.5725,3.5731,3.5769,3.574,3.573,3.573,3.5726,3.573,3.5773,3.5774,3.5774,3.5775,0,3.4963,3.4982,3.5043,3.5112,3.5162,3.5218,3.5273,3.5303,3.5351,3.5398,3.5468,3.5512,3.5599,3.5666,3.5734,3.5769,3.5779,3.5784,3.5796,3.5787,3.5771,3.5779,3.5673,3.578,3.578,3.5779,3.5779,3.5779,3.5013,3.5059,3.5122,3.5189,3.5235,3.5287,3.5335,3.5375,3.5435,3.551,3.5529,3.5601,3.5659,3.5752,3.5789,3.5846,3.5839,3.5857,3.5861,3.5865,3.5865,3.5763,3.5858,3.5858,3.5858,3.5858,3.5858,0,3.5093,3.5134,3.5196,3.5274,3.5326,3.5334,3.5395,3.5438,3.5503,3.5557,3.5613,3.5693,3.5759,3.5809,3.5876,3.5911,3.5917,3.5927,3.5924,3.5932,3.5868,3.585,3.5921,3.5921,3.5921,3.5921,3.5921,3.5921,3.514,3.5219,3.5246,3.5347,3.5388,3.5461,3.5495,3.5542,3.5585,3.5674,3.5729,3.5763,3.5815,3.5886,3.5946,3.5959,3.5982,3.5991,3.6004,3.5943,3.5936,3.593,3.5913,3.5996,3.5996,3.6063,3.6063,3.6064]}]]